TimeCDT,TemperatureF,Dew PointF,Humidity,Sea Level PressureIn,VisibilityMPH,Wind Direction,Wind SpeedMPH,Gust SpeedMPH,PrecipitationIn,Events,Conditions,WindDirDegrees,DateUTC
12:15 AM,72.5,69.8,91,30.18,10.0,SE,3.5,-,N/A,,Clear,130,2013-07-15 05:15:00
12:35 AM,72.3,69.4,91,30.18,10.0,ESE,3.5,-,N/A,,Clear,110,2013-07-15 05:35:00
12:55 AM,71.2,69.1,93,30.18,7.0,East,3.5,-,N/A,,Clear,100,2013-07-15 05:55:00
1:15 AM,71.8,69.4,92,30.18,10.0,Calm,Calm,-,N/A,,Clear,0,2013-07-15 06:15:00
1:35 AM,71.6,69.1,92,30.18,10.0,Calm,Calm,-,N/A,,Clear,0,2013-07-15 06:35:00
1:55 AM,71.2,69.1,93,30.17,7.0,NE,3.5,-,N/A,,Clear,50,2013-07-15 06:55:00
2:15 AM,71.1,68.9,93,30.18,10.0,Calm,Calm,-,N/A,,Clear,0,2013-07-15 07:15:00
2:35 AM,70.3,68.4,93,30.18,7.0,Calm,Calm,-,N/A,,Clear,0,2013-07-15 07:35:00
2:55 AM,70.9,69.1,94,30.18,7.0,East,4.6,-,N/A,,Clear,80,2013-07-15 07:55:00
3:15 AM,70.7,68.4,92,30.18,7.0,Calm,Calm,-,N/A,,Clear,0,2013-07-15 08:15:00
3:35 AM,70.3,68.2,93,30.18,7.0,NE,3.5,-,N/A,,Clear,50,2013-07-15 08:35:00
3:55 AM,70.0,68.2,94,30.18,7.0,ENE,5.8,-,N/A,,Clear,60,2013-07-15 08:55:00
4:15 AM,70.7,68.9,94,30.19,7.0,ENE,6.9,-,N/A,,Clear,60,2013-07-15 09:15:00
4:35 AM,70.7,68.9,94,30.19,7.0,Calm,Calm,-,N/A,,Clear,0,2013-07-15 09:35:00
4:55 AM,70.2,68.4,94,30.19,7.0,East,4.6,-,N/A,,Clear,80,2013-07-15 09:55:00
5:15 AM,70.3,68.7,95,30.20,7.0,ENE,5.8,-,N/A,,Clear,70,2013-07-15 10:15:00
5:35 AM,69.8,68.2,95,30.20,5.0,East,3.5,-,N/A,,Clear,80,2013-07-15 10:35:00
5:55 AM,69.8,68.0,94,30.21,5.0,ENE,4.6,-,N/A,,Clear,70,2013-07-15 10:55:00
6:15 AM,70.2,68.5,95,30.22,5.0,ENE,3.5,-,N/A,,Clear,70,2013-07-15 11:15:00
7:15 AM,74.1,71.1,90,30.23,7.0,East,4.6,-,N/A,,Clear,100,2013-07-15 12:15:00
7:35 AM,75.7,71.6,87,30.23,10.0,East,5.8,-,N/A,,Clear,90,2013-07-15 12:35:00
7:55 AM,77.4,72.1,84,30.24,10.0,East,4.6,-,N/A,,Clear,100,2013-07-15 12:55:00
8:15 AM,78.4,71.8,80,30.24,10.0,SSE,3.5,-,N/A,,Clear,150,2013-07-15 13:15:00
8:35 AM,79.2,71.4,77,30.25,10.0,SE,4.6,-,N/A,,Clear,130,2013-07-15 13:35:00
8:55 AM,80.6,71.8,74,30.25,10.0,SSE,4.6,-,N/A,,Clear,150,2013-07-15 13:55:00
9:15 AM,81.5,71.6,72,30.25,10.0,South,4.6,-,N/A,,Clear,190,2013-07-15 14:15:00
9:35 AM,82.4,71.4,69,30.25,10.0,South,4.6,-,N/A,,Clear,170,2013-07-15 14:35:00
9:55 AM,82.6,71.4,69,30.25,10.0,SSE,3.5,-,N/A,,Clear,150,2013-07-15 14:55:00
10:15 AM,84.0,71.2,65,30.26,10.0,SSE,3.5,-,N/A,,Clear,150,2013-07-15 15:15:00
10:35 AM,84.6,71.8,65,30.26,10.0,Calm,Calm,-,N/A,,Scattered Clouds,0,2013-07-15 15:35:00
10:55 AM,84.6,70.3,62,30.26,10.0,East,3.5,-,N/A,,Mostly Cloudy,80,2013-07-15 15:55:00
11:15 AM,84.2,70.5,63,30.26,10.0,Calm,Calm,-,N/A,,Mostly Cloudy,0,2013-07-15 16:15:00
11:35 AM,86.5,70.3,58,30.26,10.0,Calm,Calm,-,N/A,,Scattered Clouds,0,2013-07-15 16:35:00
11:55 AM,86.7,70.7,59,30.25,10.0,ENE,8.1,-,N/A,,Scattered Clouds,70,2013-07-15 16:55:00
12:15 PM,86.9,71.1,59,30.25,10.0,East,4.6,-,N/A,,Clear,90,2013-07-15 17:15:00
12:35 PM,87.8,70.3,56,30.25,10.0,East,3.5,-,N/A,,Clear,100,2013-07-15 17:35:00
12:55 PM,88.2,70.3,55,30.25,10.0,East,5.8,-,N/A,,Clear,100,2013-07-15 17:55:00
1:15 PM,88.0,70.2,55,30.24,10.0,ENE,3.5,-,N/A,,Clear,60,2013-07-15 18:15:00
1:35 PM,88.0,70.0,55,30.24,10.0,East,4.6,-,N/A,,Scattered Clouds,90,2013-07-15 18:35:00
1:55 PM,86.5,71.2,60,30.23,7.0,East,3.5,-,N/A,Rain,Light Rain,90,2013-07-15 18:55:00
2:15 PM,87.6,71.8,59,30.23,10.0,East,8.1,-,N/A,,Scattered Clouds,90,2013-07-15 19:15:00
2:35 PM,87.4,72.3,61,30.23,10.0,East,18.4,24.2,N/A,,Scattered Clouds,100,2013-07-15 19:35:00
2:55 PM,83.8,71.1,65,30.23,10.0,East,9.2,-,N/A,,Clear,90,2013-07-15 19:55:00
3:15 PM,86.2,73.6,66,30.22,10.0,East,8.1,-,N/A,,Clear,100,2013-07-15 20:15:00
3:35 PM,87.4,73.6,63,30.21,10.0,East,6.9,-,N/A,,Clear,100,2013-07-15 20:35:00
3:55 PM,87.1,71.8,60,30.21,10.0,East,8.1,-,N/A,,Scattered Clouds,100,2013-07-15 20:55:00
4:15 PM,88.9,71.6,56,30.20,10.0,ESE,10.4,-,N/A,,Clear,110,2013-07-15 21:15:00
4:35 PM,88.2,71.2,57,30.20,10.0,East,9.2,-,N/A,,Clear,100,2013-07-15 21:35:00
4:55 PM,87.8,70.9,57,30.20,10.0,East,12.7,17.3,N/A,,Clear,100,2013-07-15 21:55:00
5:15 PM,88.5,71.4,57,30.20,10.0,ESE,10.4,-,N/A,,Clear,110,2013-07-15 22:15:00
5:35 PM,88.2,70.9,56,30.20,10.0,East,11.5,-,N/A,,Clear,100,2013-07-15 22:35:00
5:55 PM,88.0,70.9,57,30.20,10.0,ESE,9.2,-,N/A,,Scattered Clouds,110,2013-07-15 22:55:00
6:15 PM,86.4,70.5,59,30.20,10.0,ESE,6.9,-,N/A,,Scattered Clouds,120,2013-07-15 23:15:00
6:35 PM,86.9,72.0,61,30.20,10.0,ESE,9.2,-,N/A,,Scattered Clouds,120,2013-07-15 23:35:00
6:55 PM,86.2,72.5,64,30.20,10.0,ESE,9.2,-,N/A,,Clear,120,2013-07-15 23:55:00
7:15 PM,85.6,72.9,65,30.19,10.0,East,9.2,-,N/A,,Clear,100,2013-07-16 00:15:00
7:35 PM,84.6,72.5,67,30.19,10.0,ESE,8.1,-,N/A,,Clear,110,2013-07-16 00:35:00
7:55 PM,83.7,72.7,69,30.20,10.0,ESE,6.9,-,N/A,,Clear,120,2013-07-16 00:55:00
8:15 PM,82.6,72.5,71,30.20,10.0,ESE,6.9,-,N/A,,Clear,110,2013-07-16 01:15:00
8:35 PM,81.5,72.1,73,30.20,10.0,SE,5.8,-,N/A,,Clear,140,2013-07-16 01:35:00
8:55 PM,80.8,72.0,74,30.21,10.0,SE,5.8,-,N/A,,Clear,130,2013-07-16 01:55:00
9:15 PM,79.7,72.1,78,30.22,10.0,ESE,3.5,-,N/A,,Clear,120,2013-07-16 02:15:00
9:35 PM,78.1,71.8,81,30.23,10.0,ESE,3.5,-,N/A,,Clear,120,2013-07-16 02:35:00
9:55 PM,78.4,72.1,81,30.24,10.0,Calm,Calm,-,N/A,,Clear,0,2013-07-16 02:55:00
10:15 PM,78.8,72.5,81,30.24,10.0,SSE,4.6,-,N/A,,Clear,150,2013-07-16 03:15:00
10:35 PM,78.1,72.5,83,30.25,10.0,SE,4.6,-,N/A,,Clear,140,2013-07-16 03:35:00
10:55 PM,77.4,72.5,85,30.26,10.0,SE,4.6,-,N/A,,Clear,130,2013-07-16 03:55:00
11:15 PM,77.0,72.7,86,30.26,10.0,SE,3.5,-,N/A,,Clear,140,2013-07-16 04:15:00
11:35 PM,77.0,72.9,87,30.27,10.0,ESE,4.6,-,N/A,,Clear,120,2013-07-16 04:35:00
11:55 PM,76.1,72.5,89,30.27,10.0,SE,3.5,-,N/A,,Clear,130,2013-07-16 04:55:00